TimeEST,TemperatureF,Dew PointF,Humidity,Sea Level PressureIn,VisibilityMPH,Wind Direction,Wind SpeedMPH,Gust SpeedMPH,PrecipitationIn,Events,Conditions,WindDirDegrees,DateUTC
12:15 AM,40.8,39.2,94,29.89,7.0,West,3.5,-,N/A,,Overcast,260,2013-12-04 05:15:00
12:35 AM,41.0,39.4,94,29.89,7.0,Calm,Calm,-,N/A,,Overcast,0,2013-12-04 05:35:00
12:55 AM,41.5,40.1,95,29.89,7.0,Calm,Calm,-,N/A,,Overcast,0,2013-12-04 05:55:00
1:15 AM,41.5,39.7,93,29.88,7.0,Calm,Calm,-,N/A,,Overcast,0,2013-12-04 06:15:00
1:35 AM,41.5,39.7,93,29.89,7.0,Calm,Calm,-,N/A,,Overcast,0,2013-12-04 06:35:00
1:55 AM,41.0,39.2,93,29.89,5.0,Calm,Calm,-,N/A,,Scattered Clouds,0,2013-12-04 06:55:00
2:15 AM,39.4,37.6,93,29.89,5.0,Calm,Calm,-,N/A,,Scattered Clouds,0,2013-12-04 07:15:00
2:35 AM,39.2,37.8,95,29.89,5.0,Calm,Calm,-,N/A,,Mostly Cloudy,0,2013-12-04 07:35:00
2:55 AM,39.2,37.8,95,29.89,5.0,Calm,Calm,-,N/A,,Overcast,0,2013-12-04 07:55:00
3:15 AM,39.2,37.6,94,29.88,5.0,Calm,Calm,-,N/A,,Mostly Cloudy,0,2013-12-04 08:15:00
3:35 AM,37.8,36.3,95,29.87,5.0,Calm,Calm,-,N/A,,Scattered Clouds,0,2013-12-04 08:35:00
3:55 AM,36.5,35.2,95,29.87,3.0,Calm,Calm,-,N/A,,Clear,0,2013-12-04 08:55:00
4:15 AM,36.3,35.2,96,29.88,3.0,West,3.5,-,N/A,,Scattered Clouds,280,2013-12-04 09:15:00
4:35 AM,37.6,36.5,96,29.89,4.0,Calm,Calm,-,N/A,,Overcast,0,2013-12-04 09:35:00
4:55 AM,38.1,37.0,96,29.90,5.0,Calm,Calm,-,N/A,,Overcast,0,2013-12-04 09:55:00
5:15 AM,39.0,37.6,95,29.90,5.0,Calm,Calm,-,N/A,,Overcast,0,2013-12-04 10:15:00
5:35 AM,39.0,37.8,95,29.91,7.0,Calm,Calm,-,N/A,,Mostly Cloudy,0,2013-12-04 10:35:00
5:55 AM,39.7,38.5,95,29.92,7.0,Calm,Calm,-,N/A,,Overcast,0,2013-12-04 10:55:00
6:15 AM,39.7,38.3,95,29.92,7.0,Calm,Calm,-,N/A,,Overcast,0,2013-12-04 11:15:00
6:35 AM,40.1,38.7,95,29.93,7.0,Calm,Calm,-,N/A,,Overcast,0,2013-12-04 11:35:00
6:55 AM,40.5,38.8,94,29.91,7.0,Calm,Calm,-,N/A,,Mostly Cloudy,0,2013-12-04 11:55:00
7:15 AM,39.7,38.3,95,29.91,5.0,Calm,Calm,-,N/A,,Scattered Clouds,0,2013-12-04 12:15:00
7:35 AM,38.8,37.4,95,29.92,3.0,Calm,Calm,-,N/A,,Scattered Clouds,0,2013-12-04 12:35:00
7:55 AM,38.7,37.4,95,29.92,4.0,Calm,Calm,-,N/A,,Scattered Clouds,0,2013-12-04 12:55:00
8:15 AM,39.2,37.6,94,29.93,4.0,Calm,Calm,-,N/A,,Scattered Clouds,0,2013-12-04 13:15:00
8:35 AM,40.3,39.0,95,29.93,7.0,Calm,Calm,-,N/A,,Clear,0,2013-12-04 13:35:00
8:55 AM,42.8,40.5,91,29.93,7.0,Calm,Calm,-,N/A,,Clear,0,2013-12-04 13:55:00
9:15 AM,44.8,42.4,91,29.94,10.0,Calm,Calm,-,N/A,,Scattered Clouds,0,2013-12-04 14:15:00
9:35 AM,48.2,43.9,85,29.94,10.0,Calm,Calm,-,N/A,,Clear,0,2013-12-04 14:35:00
9:55 AM,52.2,45.5,78,29.94,10.0,South,4.6,-,N/A,,Clear,170,2013-12-04 14:55:00
10:15 AM,54.7,44.6,69,29.95,10.0,SSE,5.8,-,N/A,,Clear,150,2013-12-04 15:15:00
10:35 AM,55.9,45.1,67,29.94,10.0,SSE,4.6,-,N/A,,Clear,160,2013-12-04 15:35:00
10:55 AM,57.9,45.7,64,29.93,10.0,SSE,8.1,-,N/A,,Clear,160,2013-12-04 15:55:00
11:15 AM,58.8,46.2,63,29.93,10.0,SSE,4.6,-,N/A,,Clear,150,2013-12-04 16:15:00
11:35 AM,61.2,47.1,60,29.91,10.0,SSE,4.6,-,N/A,,Scattered Clouds,160,2013-12-04 16:35:00
11:55 AM,62.4,47.3,58,29.89,10.0,SSE,6.9,-,N/A,,Clear,150,2013-12-04 16:55:00
12:15 PM,62.1,47.8,60,29.89,10.0,SSE,5.8,-,N/A,,Scattered Clouds,150,2013-12-04 17:15:00
12:35 PM,63.3,48.2,58,29.87,10.0,South,5.8,-,N/A,,Scattered Clouds,170,2013-12-04 17:35:00
12:55 PM,63.7,49.1,59,29.86,10.0,South,8.1,-,N/A,,Scattered Clouds,170,2013-12-04 17:55:00
1:15 PM,63.5,49.1,59,29.86,10.0,South,9.2,-,N/A,,Mostly Cloudy,190,2013-12-04 18:15:00
1:35 PM,63.5,50.0,61,29.86,10.0,South,6.9,-,N/A,,Overcast,170,2013-12-04 18:35:00
1:55 PM,63.7,50.0,61,29.84,10.0,SSE,5.8,-,N/A,,Overcast,160,2013-12-04 18:55:00
2:15 PM,63.9,50.2,61,29.83,10.0,South,5.8,-,N/A,,Overcast,170,2013-12-04 19:15:00
2:35 PM,64.2,50.4,61,29.82,10.0,SSE,8.1,-,N/A,,Overcast,160,2013-12-04 19:35:00
2:55 PM,64.4,50.4,60,29.83,10.0,SSE,9.2,-,N/A,,Overcast,160,2013-12-04 19:55:00
3:15 PM,63.9,50.4,61,29.82,10.0,SE,3.5,-,N/A,,Overcast,140,2013-12-04 20:15:00
3:35 PM,63.5,50.2,62,29.83,10.0,SSE,5.8,-,N/A,,Overcast,150,2013-12-04 20:35:00
3:55 PM,63.1,50.0,62,29.84,10.0,SSE,3.5,-,N/A,,Overcast,150,2013-12-04 20:55:00
4:15 PM,62.8,50.0,63,29.84,10.0,SSE,4.6,-,N/A,,Overcast,150,2013-12-04 21:15:00
4:35 PM,62.2,50.0,64,29.82,10.0,SE,4.6,-,N/A,,Mostly Cloudy,130,2013-12-04 21:35:00
4:55 PM,61.9,50.0,65,29.82,10.0,Calm,Calm,-,N/A,,Mostly Cloudy,0,2013-12-04 21:55:00
5:15 PM,61.7,49.6,65,29.82,10.0,SE,3.5,-,N/A,,Mostly Cloudy,140,2013-12-04 22:15:00
5:35 PM,61.2,49.5,65,29.82,10.0,ESE,3.5,-,N/A,,Mostly Cloudy,120,2013-12-04 22:35:00
5:55 PM,61.2,49.5,65,29.81,10.0,Calm,Calm,-,N/A,,Mostly Cloudy,0,2013-12-04 22:55:00
6:15 PM,59.9,49.3,68,29.82,10.0,Calm,Calm,-,N/A,,Scattered Clouds,0,2013-12-04 23:15:00
6:35 PM,59.2,49.1,69,29.82,10.0,Calm,Calm,-,N/A,,Overcast,0,2013-12-04 23:35:00
6:55 PM,57.7,48.7,72,29.82,10.0,SE,3.5,-,N/A,,Mostly Cloudy,130,2013-12-04 23:55:00
7:15 PM,56.7,48.4,74,29.82,10.0,SSE,3.5,-,N/A,,Clear,150,2013-12-05 00:15:00
7:35 PM,56.7,48.6,74,29.82,10.0,SE,3.5,-,N/A,,Clear,140,2013-12-05 00:35:00
7:55 PM,57.2,48.4,72,29.82,10.0,SSE,3.5,-,N/A,,Clear,160,2013-12-05 00:55:00
8:15 PM,57.4,48.6,72,29.82,10.0,South,3.5,-,N/A,,Clear,170,2013-12-05 01:15:00
8:35 PM,57.2,48.4,72,29.82,10.0,SSE,4.6,-,N/A,,Clear,160,2013-12-05 01:35:00
8:55 PM,57.4,48.6,72,29.83,10.0,South,3.5,-,N/A,,Clear,170,2013-12-05 01:55:00
9:15 PM,58.1,48.6,71,29.84,10.0,South,4.6,-,N/A,,Clear,170,2013-12-05 02:15:00
9:35 PM,58.1,48.6,71,29.83,10.0,South,5.8,-,N/A,,Clear,170,2013-12-05 02:35:00
9:55 PM,59.0,49.1,70,29.83,10.0,South,5.8,-,N/A,,Clear,170,2013-12-05 02:55:00
10:15 PM,59.4,49.3,69,29.82,10.0,South,6.9,-,N/A,,Clear,170,2013-12-05 03:15:00
10:35 PM,59.4,49.3,69,29.83,10.0,South,5.8,-,N/A,,Clear,170,2013-12-05 03:35:00
10:55 PM,59.0,49.3,70,29.84,10.0,SSE,5.8,-,N/A,,Clear,160,2013-12-05 03:55:00
11:15 PM,58.8,49.3,71,29.84,10.0,South,6.9,-,N/A,,Clear,170,2013-12-05 04:15:00
11:35 PM,59.4,49.6,70,29.85,10.0,South,4.6,-,N/A,,Clear,180,2013-12-05 04:35:00
11:55 PM,59.9,50.0,70,29.86,10.0,SSW,5.8,-,N/A,,Clear,200,2013-12-05 04:55:00